Location: Unspecified
(56.5167°N, 0.0000°E)
Time: 03:49:00
(UTC+02:00)

Cosmos 1674 - Visible Passes

Search period start: 19 April 2014 00:00
Search period end: 29 April 2014 00:00
Orbit: 517 x 546 km, 82.5° (Epoch: 17 April)

Date Brightness Start Highest point End Pass type
(mag) Time Alt. Az. Time Alt. Az. Time Alt. Az.
25 Apr 6.0 05:47:31 10° ESE 05:49:23 13° E 05:51:15 10° NE visible
26 Apr 6.0 05:37:33 10° ESE 05:39:14 13° E 05:40:56 10° NE visible
27 Apr 6.0 05:27:36 10° ESE 05:29:05 12° E 05:30:34 10° ENE visible
28 Apr 6.0 05:17:40 10° E 05:18:55 11° E 05:20:09 10° ENE visible
